Location: ????????
(60.4333°N, 46.4710°E)
Time: 19:51:04
(UTC+00:00)

ERS-2 - Pass Details

Date: 25 November 2020
Orbit: 492 x 497 km, 98.6° (Epoch: 17 January)

Event Time Altitude Azimuth Distance (km) Brightness Sun altitude
Exits shadow 14:00:32 19° 99° (E) 1,250 3.6 -13.2°
Drops below altitude 10° 14:02:54 10° 139° (SE) 1,706 4.6 -13.5°
Sets 14:05:25 0° 158° (SSE) 2,585 5.7 -13.8°
